Weather History for PADU - March, 2014

Change the Weather History Date:

Friday, March 21, 2014

  Actual Average Record
Temperature  
Mean Temperature 38 °F -  
Max Temperature 39 °F 38 °F 45 °F (1987)
Min Temperature 37 °F 26 °F 13 °F (1986)
Degree Days  
Heating Degree Days 27    
Moisture  
Dew Point 34 °F    
Average Humidity 86    
Maximum Humidity 93    
Minimum Humidity 81    
Precipitation  
Precipitation 0.11 in - - ()
Sea Level Pressure  
Sea Level Pressure 29.90 in    
Wind  
Wind Speed 10 mph (ESE)    
Max Wind Speed 25 mph    
Max Gust Speed 31 mph    
Visibility 7 miles    
Events Rain    
Averages and records for this station are not official NWS values.
T = Trace of Precipitation, MM = Missing Value Source: NWS Daily Summary

Daily Weather History Graph

Daily Weather History Graph

Search for Another Location

Airport or City:

Trip Planner

Search our weather history database for the weather conditions in past years. The results will help you decide how hot, cold, wet, or windy it might be!

Date:

Astronomy

Mar. 21, 2014 Rise Set
Actual Time 9:05 AM AKDT 9:22 PM AKDT
Civil Twilight 8:30 AM AKDT 9:57 PM AKDT
Nautical Twilight 7:48 AM AKDT 10:39 PM AKDT
Astronomical Twilight 7:04 AM AKDT 11:23 PM AKDT
Moon 2:33 AM AKDT (3/21) 11:26 AM AKDT (3/21)
Length of Visible Light 13h 27m
Length of Day
12h 16m
Waning Gibbous, 74% of the Moon is Illuminated
Mar 21
Waning Gibbous
Mar 23
Last Quarter
Mar 30
New
Apr 7
First Quarter
Apr 14
Full

Hourly Weather History & Observations

Time (AKDT) Temp. Windchill Dew Point Humidity Pressure Visibility Wind Dir Wind Speed Gust Speed Precip Events Conditions
12:56 AM 37.9 °F 32.7 °F 34.0 °F 86% 29.90 in 10.0 mi ENE 6.9 mph - 0.00 in Rain Light Rain
1:50 AM 37.4 °F 34.9 °F 33.8 °F 87% 29.87 in 6.0 mi East 3.5 mph - 0.00 in Rain Light Rain
1:56 AM 37.9 °F 35.5 °F 34.0 °F 86% 29.89 in 8.0 mi East 3.5 mph - 0.00 in Rain Light Rain
2:21 AM 37.4 °F 32.8 °F 33.8 °F 87% 29.87 in 7.0 mi SE 5.8 mph - 0.01 in Rain Light Rain
2:56 AM 37.9 °F 34.4 °F 34.0 °F 86% 29.88 in 7.0 mi Variable 4.6 mph - 0.02 in Rain Light Rain
3:56 AM 37.9 °F 32.7 °F 34.0 °F 86% 29.88 in 9.0 mi East 6.9 mph - 0.02 in Rain Light Rain
4:33 AM 37.4 °F 31.4 °F 33.8 °F 87% 29.85 in 10.0 mi SSE 8.1 mph - 0.00 in Rain Light Rain
4:56 AM 37.9 °F 30.9 °F 34.0 °F 86% 29.87 in 10.0 mi SSE 10.4 mph - 0.00 in Rain Light Rain
5:56 AM 37.0 °F 29.3 °F 34.0 °F 89% 29.87 in 9.0 mi SSE 11.5 mph - 0.00 in   Overcast
5:59 AM 37.4 °F 30.3 °F 33.8 °F 87% 29.85 in 6.0 mi SSE 10.4 mph - 0.00 in Rain Light Rain
6:11 AM 37.4 °F 30.8 °F 33.8 °F 87% 29.85 in 6.0 mi SSE 9.2 mph 18.4 mph 0.00 in Rain Light Rain
6:13 AM 37.4 °F 30.8 °F 33.8 °F 87% 29.85 in 10.0 mi SSE 9.2 mph - 0.00 in Rain Light Rain
6:56 AM 37.0 °F 30.4 °F 34.0 °F 89% 29.87 in 10.0 mi SSE 9.2 mph - 0.00 in Rain Light Rain
7:56 AM 37.9 °F 33.5 °F 34.0 °F 86% 29.86 in 8.0 mi SE 5.8 mph - 0.01 in Rain Light Rain
8:22 AM 37.4 °F 32.8 °F 33.8 °F 87% 29.85 in 7.0 mi SE 5.8 mph - 0.00 in Rain Light Rain
8:28 AM 37.4 °F 33.8 °F 33.8 °F 87% 29.85 in 6.0 mi SSE 4.6 mph - 0.00 in Rain Light Rain
8:35 AM 37.4 °F 31.4 °F 33.8 °F 87% 29.85 in 6.0 mi South 8.1 mph - 0.00 in Rain Light Rain
8:40 AM 37.4 °F 32.1 °F 33.8 °F 87% 29.85 in 5.0 mi South 6.9 mph - 0.00 in Rain Light Rain
8:44 AM 37.4 °F 32.8 °F 33.8 °F 87% 29.85 in 5.0 mi South 5.8 mph - 0.00 in Rain Light Rain
8:56 AM 37.0 °F 33.3 °F 34.0 °F 89% 29.87 in 6.0 mi South 4.6 mph - 0.00 in Rain Light Rain
9:15 AM 37.4 °F - 33.8 °F 87% 29.85 in 4.0 mi Calm Calm - 0.00 in Rain Light Rain
9:17 AM 37.4 °F - 33.8 °F 87% 29.85 in 3.0 mi Calm Calm - 0.00 in Rain Light Rain
9:32 AM 37.4 °F 33.8 °F 35.6 °F 93% 29.86 in 4.0 mi South 4.6 mph - 0.00 in Rain Light Rain
9:56 AM 37.0 °F 29.3 °F 35.1 °F 93% 29.88 in 4.0 mi East 11.5 mph - 0.00 in Rain Light Rain
10:07 AM 37.4 °F 28.9 °F 33.8 °F 87% 29.86 in 6.0 mi East 13.8 mph - 0.00 in Rain Light Rain
10:42 AM 37.4 °F 29.8 °F 33.8 °F 87% 29.87 in 3.0 mi East 11.5 mph - 0.00 in Rain Light Rain
10:56 AM 37.9 °F 29.2 °F 34.0 °F 86% 29.89 in 3.0 mi East 15.0 mph - 0.00 in Rain Light Rain
11:14 AM 37.4 °F 27.8 °F 33.8 °F 87% 29.88 in 5.0 mi East 17.3 mph - 0.00 in Rain Light Rain
11:25 AM 37.4 °F 28.9 °F 33.8 °F 87% 29.87 in 6.0 mi East 13.8 mph - 0.00 in Rain Light Rain
11:42 AM 37.4 °F 26.9 °F 33.8 °F 87% 29.88 in 8.0 mi East 20.7 mph 24.2 mph 0.00 in Rain Light Rain
11:56 AM 37.9 °F 28.5 °F 34.0 °F 86% 29.90 in 8.0 mi East 17.3 mph - 0.00 in Rain Light Rain
11:58 AM 37.4 °F 28.2 °F 33.8 °F 87% 29.88 in 5.0 mi East 16.1 mph - 0.00 in Rain Light Rain
12:12 PM 37.4 °F 28.5 °F 33.8 °F 87% 29.88 in 7.0 mi ESE 15.0 mph 21.9 mph 0.00 in Rain Light Rain
12:50 PM 39.2 °F 32.5 °F 33.8 °F 81% 29.89 in 6.0 mi East 10.4 mph - 0.00 in Rain Light Rain
12:56 PM 37.9 °F 29.6 °F 34.0 °F 86% 29.91 in 6.0 mi East 13.8 mph 17.3 mph 0.00 in Rain Light Rain
12:57 PM 37.4 °F 28.2 °F 33.8 °F 87% 29.89 in 8.0 mi East 16.1 mph - 0.00 in Rain Light Rain
1:42 PM 39.2 °F 30.5 °F 33.8 °F 81% 29.89 in 10.0 mi ESE 16.1 mph 21.9 mph 0.01 in Rain Light Rain
1:56 PM 39.0 °F 31.4 °F 34.0 °F 82% 29.92 in 7.0 mi East 12.7 mph 17.3 mph 0.01 in Rain Light Rain
1:57 PM 39.2 °F 32.0 °F 33.8 °F 81% 29.90 in 6.0 mi East 11.5 mph 17.3 mph 0.00 in Rain Light Rain
2:56 PM 39.0 °F 28.0 °F 34.0 °F 82% 29.92 in 6.0 mi East 25.3 mph 31.1 mph 0.00 in Rain Light Rain
2:59 PM 37.4 °F 27.5 °F 33.8 °F 87% 29.91 in 8.0 mi East 18.4 mph 31.1 mph 0.00 in Rain Light Rain
3:36 PM 39.2 °F 29.8 °F 33.8 °F 81% 29.91 in 10.0 mi East 18.4 mph 27.6 mph 0.01 in Rain Light Rain
3:56 PM 39.0 °F 30.3 °F 34.0 °F 82% 29.94 in 10.0 mi East 16.1 mph 23.0 mph 0.01 in   Overcast
4:16 PM 39.2 °F 30.2 °F 33.8 °F 81% 29.92 in 9.0 mi East 17.3 mph 26.5 mph 0.00 in Rain Light Rain
4:19 PM 39.2 °F 29.6 °F 33.8 °F 81% 29.92 in 0.0 mi East 19.6 mph 27.6 mph 0.00 in Rain Light Rain
4:21 PM 39.2 °F 29.8 °F 33.8 °F 81% 29.92 in 10.0 mi East 18.4 mph 27.6 mph 0.00 in Rain Light Rain
4:36 PM 39.2 °F 29.0 °F 33.8 °F 81% 29.92 in 7.0 mi East 21.9 mph 29.9 mph 0.00 in   Overcast
4:42 PM 39.2 °F 29.3 °F 33.8 °F 81% 29.92 in 10.0 mi East 20.7 mph 28.8 mph 0.00 in   Overcast
4:56 PM 39.0 °F 29.9 °F 34.0 °F 82% 29.95 in 10.0 mi East 17.3 mph 26.5 mph 0.00 in   Overcast
5:56 PM 39.0 °F 30.6 °F 34.0 °F 82% 29.96 in 10.0 mi East 15.0 mph 29.9 mph 0.00 in Rain Light Rain
6:56 PM 37.9 °F 29.2 °F 34.0 °F 86% 29.97 in 7.0 mi East 15.0 mph - 0.00 in Rain Light Rain
7:56 PM 37.9 °F 32.1 °F 34.0 °F 86% 29.98 in 8.0 mi East 8.1 mph - 0.02 in Rain Light Rain
8:08 PM 37.4 °F 30.3 °F 33.8 °F 87% 29.97 in 10.0 mi East 10.4 mph - 0.00 in Rain Light Rain
8:56 PM 37.9 °F 28.5 °F 34.0 °F 86% 29.99 in 10.0 mi East 17.3 mph - 0.00 in Rain Light Rain
9:10 PM 37.4 °F 27.8 °F 33.8 °F 87% 29.98 in 8.0 mi East 17.3 mph - 0.00 in Rain Light Rain
9:53 PM 37.4 °F 28.2 °F 33.8 °F 87% 29.99 in 10.0 mi East 16.1 mph - 0.00 in Rain Light Rain
9:56 PM 37.9 °F 29.2 °F 33.1 °F 83% 30.01 in 10.0 mi East 15.0 mph - 0.01 in Rain Light Rain
10:56 PM 37.0 °F 31.0 °F 33.1 °F 86% 30.04 in 10.0 mi NE 8.1 mph - 0.01 in Rain Light Rain
11:56 PM 37.9 °F 32.1 °F 33.1 °F 83% 30.06 in 10.0 mi NNE 8.1 mph - 0.00 in   Overcast